DW9590 Weather Reports


Display with metric or nautical units.
time (UTC)temp
F
wind
direction
speed
MPH
gust
MPH
rain 1hr
in
rain 24hr
in
rain mn
in
humidity
%
barometer
mb
20191210161504 39 35 0.0 2.0 0.01 0.15 0.15 94 933.9
20191210161004 39 22 1.0 3.0 0.01 0.15 0.15 94 933.9
20191210160503 39 355 1.0 3.0 0.01 0.15 0.15 94 933.9
20191210160003 39 5 1.0 3.0 0.01 0.15 0.15 94 933.9
20191210155503 39 47 1.0 3.0 0.02 0.15 0.15 93 933.9
20191210155004 39 60 1.0 3.0 0.02 0.15 0.15 93 933.9
20191210154504 39 63 1.0 3.0 0.02 0.15 0.15 93 933.9
20191210154004 39 265 1.0 3.0 0.02 0.15 0.15 93 933.9
20191210153503 39 84 0.0 5.0 0.01 0.14 0.14 93 933.9
20191210153004 39 70 1.0 3.0 0.01 0.14 0.14 93 933.9
20191210152504 39 82 1.0 3.0 0.01 0.14 0.14 93 933.9
20191210152004 39 90 1.0 3.0 0.02 0.14 0.14 93 933.9
20191210151503 39 121 1.0 8.0 0.02 0.14 0.14 93 933.9
20191210151004 40 76 2.0 8.0 0.02 0.14 0.14 93 933.9
20191210150504 40 305 1.0 6.0 0.02 0.14 0.14 93 933.9
20191210150004 40 120 1.0 3.0 0.02 0.14 0.14 93 933.9
20191210145503 40 19 0.0 3.0 0.01 0.13 0.13 93 933.9
20191210145004 40 342 1.0 3.0 0.01 0.13 0.13 93 933.9
20191210144503 40 5 1.0 2.0 0.02 0.13 0.13 93 933.9
20191210144004 40 347 1.0 3.0 0.02 0.13 0.13 93 933.9
20191210143504 40 319 0.0 2.0 0.02 0.13 0.13 93 933.9
20191210143004 40 3 0.0 3.0 0.02 0.13 0.13 93 933.9
20191210142504 40 356 1.0 3.0 0.02 0.13 0.13 93 934.0
20191210142004 40 20 0.0 5.0 0.01 0.12 0.12 93 934.0
20191210141504 40 295 0.0 2.0 0.01 0.12 0.12 93 934.0
20191210141004 40 289 1.0 5.0 0.01 0.12 0.12 93 934.0
20191210140503 40 96 1.0 3.0 0.02 0.12 0.12 93 934.0
20191210140004 40 61 1.0 6.0 0.02 0.12 0.12 93 934.0
20191210135504 40 17 0.0 5.0 0.02 0.12 0.12 93 934.0
20191210135004 40 324 2.0 10.0 0.02 0.12 0.12 93 934.0
20191210134504 40 0 1.0 3.0 0.01 0.11 0.11 93 934.0
20191210134004 40 353 2.0 12.0 0.01 0.11 0.11 93 934.0
20191210133503 40 18 2.0 10.0 0.01 0.11 0.11 93 934.0
20191210133001 40 226 1.0 3.0 0.02 0.11 0.11 93 934.0
20191210132502 40 4 1.0 3.0 0.02 0.11 0.11 92 934.0
20191210132002 40 99 1.0 6.0 0.02 0.11 0.11 92 934.0
20191210131501 40 44 1.0 6.0 0.02 0.11 0.11 92 934.0
20191210131002 40 41 1.0 5.0 0.02 0.11 0.11 92 934.0
20191210130502 40 41 1.0 2.0 0.01 0.10 0.10 92 934.0
20191210130002 40 355 0.0 3.0 0.01 0.10 0.10 92 934.0
20191210125502 40 73 0.0 1.0 0.02 0.10 0.10 92 934.0
20191210125002 40 350 1.0 5.0 0.02 0.10 0.10 92 934.0
20191210124501 40 5 1.0 5.0 0.02 0.10 0.10 92 934.0
20191210124002 40 337 1.0 3.0 0.02 0.10 0.10 92 934.0
20191210123502 41 284 0.0 2.0 0.02 0.10 0.10 92 934.0
20191210123002 41 16 2.0 8.0 0.01 0.09 0.09 92 934.0
20191210122503 41 108 1.0 8.0 0.02 0.09 0.09 92 934.0
20191210122002 41 44 2.0 7.0 0.02 0.09 0.09 92 934.0
20191210121501 41 0 1.0 9.0 0.02 0.09 0.09 92 934.0
20191210121001 41 27 1.0 5.0 0.02 0.09 0.09 92 934.0
20191210120502 41 61 1.0 3.0 0.02 0.09 0.09 92 934.0
20191210120002 41 305 0.0 1.0 0.02 0.09 0.09 92 934.0
20191210115501 41 303 0.0 1.0 0.02 0.08 0.08 91 934.0
20191210115001 41 312 0.0 2.0 0.02 0.08 0.08 92 934.0
20191210114501 41 296 0.0 3.0 0.02 0.08 0.08 91 934.0
20191210114002 41 359 1.0 3.0 0.02 0.08 0.08 91 934.0
20191210113501 41 42 1.0 3.0 0.03 0.08 0.08 91 934.0
20191210113003 41 34 2.0 5.0 0.03 0.08 0.08 91 934.0
20191210112501 41 274 2.0 6.0 0.03 0.07 0.07 91 934.0
20191210112002 41 327 3.0 10.0 0.03 0.07 0.07 91 934.0
20191210111501 41 335 2.0 5.0 0.04 0.07 0.07 91 934.0
20191210111002 41 333 3.0 7.0 0.04 0.07 0.07 91 934.1
20191210110502 41 306 2.0 6.0 0.04 0.07 0.07 91 934.1
20191210110002 42 11 1.0 8.0 0.04 0.07 0.07 91 934.1
20191210105501 42 79 1.0 3.0 0.03 0.06 0.06 91 934.1
20191210105002 42 22 0.0 3.0 0.03 0.06 0.06 90 934.1
20191210104502 42 65 0.0 3.0 0.03 0.06 0.06 90 934.1
20191210104002 42 349 1.0 3.0 0.03 0.06 0.06 90 934.1
20191210103502 42 344 3.0 8.0 0.02 0.05 0.05 90 934.1
20191210103002 42 74 1.0 3.0 0.02 0.05 0.05 89 934.1
20191210102503 42 92 1.0 5.0 0.01 0.04 0.04 89 934.1
20191210102002 42 27 1.0 3.0 0.01 0.04 0.04 89 934.1
20191210101502 42 352 1.0 3.0 0.00 0.03 0.03 88 934.1
20191210101002 42 83 1.0 5.0 0.00 0.03 0.03 89 934.1
20191210065002 49 33 0.0 2.0 0.00 0.00 0.00 79 934.2
20191210064503 49 33 2.0 3.0 0.00 0.00 0.00 78 934.2
20191210064003 49 24 1.0 3.0 0.00 0.00 0.00 77 934.2
20191210063502 49 282 0.0 3.0 0.00 0.00 0.00 76 934.2
20191210063002 49 49 3.0 12.0 0.00 0.00 0.00 75 934.2
20191210062502 50 25 2.0 8.0 0.00 0.00 0.00 74 934.2
20191210062003 50 344 2.0 8.0 0.00 0.00 0.00 74 934.2
20191210061501 50 21 2.0 5.0 0.00 0.00 0.00 74 934.2
20191210061003 50 35 1.0 3.0 0.00 0.00 0.00 74 934.2
20191210060502 50 356 5.0 10.0 0.00 0.00 0.00 74 934.2
20191210060003 50 9 0.0 3.0 0.00 0.00 0.00 74 934.2
20191210055502 51 67 1.0 6.0 0.00 0.00 0.00 75 934.2
20191210055002 51 111 1.0 3.0 0.00 0.00 0.00 74 934.2
20191210054502 51 340 3.0 9.0 0.00 0.00 0.00 74 934.2
20191210054002 51 305 3.0 9.0 0.00 0.00 0.00 74 934.2
20191210053502 51 335 3.0 10.0 0.00 0.00 0.00 74 934.2
20191210053002 51 355 4.0 9.0 0.00 0.00 0.00 73 934.2
20191210052502 51 6 2.0 9.0 0.00 0.00 0.00 73 934.2
20191210052002 52 340 4.0 9.0 0.00 0.00 0.00 73 934.2
20191210051502 52 24 2.0 12.0 0.00 0.00 0.00 72 934.2
20191210051003 52 350 4.0 13.0 0.00 0.00 0.00 71 934.2
20191210050502 53 304 3.0 9.0 0.00 0.00 0.00 71 934.2
20191210050002 53 298 3.0 7.0 0.00 0.00 0.00 70 934.2
20191210045502 53 312 2.0 6.0 0.00 0.00 0.00 70 934.2
20191210045003 54 310 1.0 3.0 0.00 0.00 0.00 70 934.2
20191210044503 54 125 3.0 8.0 0.00 0.00 0.00 70 934.2
20191210044003 54 319 4.0 16.0 0.00 0.00 0.00 69 934.2
20191210043502 54 352 3.0 8.0 0.00 0.00 0.00 69 934.2
20191210043002 55 47 2.0 9.0 0.00 0.00 0.00 69 934.2
20191210042503 55 349 3.0 12.0 0.00 0.00 0.00 68 934.2
20191210042003 55 325 1.0 3.0 0.00 0.00 0.00 68 934.2
20191210041502 55 41 1.0 6.0 0.00 0.00 0.00 67 934.2
20191210041003 55 329 3.0 9.0 0.00 0.00 0.00 67 934.2
20191210040502 56 311 1.0 6.0 0.00 0.00 0.00 67 934.2
20191210040002 56 0 3.0 9.0 0.00 0.00 0.00 67 934.2
20191210035502 56 104 0.0 3.0 0.00 0.00 0.00 67 934.2
20191210035002 56 301 1.0 7.0 0.00 0.00 0.00 66 934.2
20191210034502 56 323 3.0 8.0 0.00 0.00 0.00 66 934.2
20191210034002 57 47 2.0 8.0 0.00 0.00 0.00 66 934.2
20191210033502 57 51 3.0 9.0 0.00 0.00 0.00 66 934.2
20191210033003 57 36 5.0 9.0 0.00 0.00 0.00 65 934.2
20191210032502 58 305 2.0 12.0 0.00 0.00 0.00 65 934.2
20191210032003 58 297 3.0 10.0 0.00 0.00 0.00 65 934.2
20191210031503 58 5 5.0 8.0 0.00 0.00 0.00 65 934.2
20191210031003 58 334 2.0 7.0 0.00 0.00 0.00 64 934.2
20191210030502 59 330 3.0 10.0 0.00 0.00 0.00 63 934.2
20191210030002 59 325 1.0 7.0 0.00 0.00 0.00 63 934.2
20191210025502 59 9 5.0 10.0 0.00 0.00 0.00 62 934.2
20191210025003 60 5 1.0 3.0 0.00 0.00 0.00 62 934.2
20191210024503 60 355 1.0 7.0 0.00 0.00 0.00 61 934.2
20191210024003 60 333 1.0 3.0 0.00 0.00 0.00 61 934.2
20191210023502 60 311 2.0 6.0 0.00 0.00 0.00 61 934.2
20191210023002 60 29 2.0 8.0 0.00 0.00 0.00 61 934.2
20191210022502 61 83 1.0 5.0 0.00 0.00 0.00 60 934.2
20191210022002 61 319 3.0 7.0 0.00 0.00 0.00 60 934.2
20191210021502 61 338 2.0 7.0 0.00 0.00 0.00 60 934.2
20191210021003 61 61 3.0 17.0 0.00 0.00 0.00 59 934.2
20191210020502 61 41 1.0 7.0 0.00 0.00 0.00 59 934.2
20191210020003 62 337 3.0 9.0 0.00 0.00 0.00 58 934.2
20191210015502 62 356 5.0 12.0 0.00 0.00 0.00 57 934.2
20191210015002 63 358 3.0 10.0 0.00 0.00 0.00 57 934.2
20191210014502 63 306 5.0 16.0 0.00 0.00 0.00 56 934.2
20191210014002 64 330 3.0 10.0 0.00 0.00 0.00 55 934.2
20191210013502 64 303 3.0 7.0 0.00 0.00 0.00 56 934.2
20191210013003 65 302 4.0 9.0 0.00 0.00 0.00 55 934.2
20191210012503 65 26 2.0 10.0 0.00 0.00 0.00 55 934.2
20191210012003 66 292 3.0 6.0 0.00 0.00 0.00 54 934.2
20191210011503 66 292 3.0 8.0 0.00 0.00 0.00 53 934.2
20191210011003 66 316 2.0 9.0 0.00 0.00 0.00 53 934.2
20191210010502 67 325 3.0 12.0 0.00 0.00 0.00 52 934.2
20191210010002 67 300 3.0 12.0 0.00 0.00 0.00 52 934.2
20191210005503 67 298 3.0 12.0 0.00 0.00 0.00 51 934.2
20191210005003 68 316 2.0 7.0 0.00 0.00 0.00 52 934.2
20191210004503 68 38 3.0 5.0 0.00 0.00 0.00 52 934.2
20191210004003 68 25 2.0 7.0 0.00 0.00 0.00 51 934.2
20191210003502 69 319 1.0 9.0 0.00 0.00 0.00 51 934.2
20191210003003 69 313 4.0 9.0 0.00 0.00 0.00 51 934.2
20191210002503 69 299 2.0 10.0 0.00 0.00 0.00 52 934.2
20191210002002 69 13 3.0 8.0 0.00 0.00 0.00 52 934.2
20191210001502 70 349 1.0 7.0 0.00 0.00 0.00 52 934.2
20191210001002 70 341 0.0 3.0 0.00 0.00 0.00 52 934.2
20191210000503 70 338 0.0 5.0 0.00 0.00 0.00 52 934.2
20191210000003 70 300 1.0 3.0 0.00 0.00 0.00 52 934.2
20191209235503 71 325 2.0 6.0 0.00 0.00 0.00 51 934.2
20191209235003 71 340 0.0 5.0 0.00 0.00 0.00 51 934.2
20191209234502 71 6 1.0 3.0 0.00 0.00 0.00 50 934.2
20191209234003 71 46 1.0 6.0 0.00 0.00 0.00 50 934.2
20191209233503 72 343 1.0 3.0 0.00 0.00 0.00 49 934.2
20191209233003 72 300 1.0 5.0 0.00 0.00 0.00 49 934.2
20191209232502 72 306 1.0 5.0 0.00 0.00 0.00 49 934.2
20191209232002 73 348 1.0 3.0 0.00 0.00 0.00 49 934.2
20191209231502 73 307 2.0 9.0 0.00 0.00 0.00 48 934.2
20191209231002 74 305 2.0 6.0 0.00 0.00 0.00 48 934.2
20191209230503 74 20 2.0 5.0 0.00 0.00 0.00 48 934.2
20191209230003 74 33 2.0 6.0 0.00 0.00 0.00 47 934.2
20191209225503 75 289 1.0 5.0 0.00 0.00 0.00 48 934.2
20191209225003 75 300 0.0 2.0 0.00 0.00 0.00 46 934.2
20191209224503 76 299 1.0 3.0 0.00 0.00 0.00 45 934.2
20191209224003 76 311 1.0 5.0 0.00 0.00 0.00 45 934.2
20191209223502 76 303 2.0 6.0 0.00 0.00 0.00 44 934.2
20191209223002 76 289 1.0 3.0 0.00 0.00 0.00 45 934.2
20191209222502 77 332 3.0 6.0 0.00 0.00 0.00 43 934.2
20191209222003 77 295 3.0 5.0 0.00 0.00 0.00 44 934.2
20191209221502 77 303 1.0 3.0 0.00 0.00 0.00 44 934.2
20191209221003 77 301 2.0 5.0 0.00 0.00 0.00 44 934.2
20191209220503 77 280 2.0 5.0 0.00 0.00 0.00 44 934.2
20191209220003 77 299 2.0 6.0 0.00 0.00 0.00 44 934.2
20191209215503 78 291 3.0 6.0 0.00 0.00 0.00 44 934.2
20191209215003 78 300 3.0 7.0 0.00 0.00 0.00 45 934.2
20191209214502 78 292 3.0 5.0 0.00 0.00 0.00 46 934.2
20191209214003 78 291 4.0 10.0 0.00 0.00 0.00 45 934.2
20191209213503 78 310 3.0 6.0 0.00 0.00 0.00 46 934.2
20191209213003 78 313 3.0 8.0 0.00 0.00 0.00 48 934.2
20191209212503 78 291 2.0 6.0 0.00 0.00 0.00 49 934.2
20191209212003 79 301 2.0 3.0 0.00 0.00 0.00 50 934.2
20191209211503 79 305 3.0 7.0 0.00 0.00 0.00 49 934.2
20191209211003 79 258 3.0 6.0 0.00 0.00 0.00 49 934.2
20191209210502 79 311 3.0 5.0 0.00 0.00 0.00 50 934.2
20191209210003 79 269 2.0 7.0 0.00 0.00 0.00 50 934.2
20191209205503 78 276 3.0 6.0 0.00 0.00 0.00 50 934.2
20191209205003 78 272 3.0 9.0 0.00 0.00 0.00 50 934.2
20191209204503 78 272 3.0 10.0 0.00 0.00 0.00 51 934.2
20191209204004 78 280 3.0 7.0 0.00 0.00 0.00 51 934.2
20191209203503 78 296 2.0 6.0 0.00 0.00 0.00 51 934.2
20191209203004 78 296 3.0 9.0 0.00 0.00 0.00 51 934.2
20191209202503 78 328 3.0 10.0 0.00 0.00 0.00 51 934.2
20191209202004 78 300 4.0 8.0 0.00 0.00 0.00 52 934.2
20191209201503 78 310 5.0 9.0 0.00 0.00 0.00 53 934.2
20191209201003 77 294 3.0 8.0 0.00 0.00 0.00 53 934.2
20191209200502 77 274 2.0 8.0 0.00 0.00 0.00 55 934.2
20191209200003 77 303 2.0 7.0 0.00 0.00 0.00 55 934.2
20191209195503 77 292 3.0 6.0 0.00 0.00 0.00 54 934.2
20191209195003 77 293 5.0 9.0 0.00 0.00 0.00 54 934.2
20191209194504 77 274 3.0 8.0 0.00 0.00 0.00 56 934.2
20191209194003 77 260 4.0 8.0 0.00 0.00 0.00 58 934.2
20191209193503 77 295 2.0 6.0 0.00 0.00 0.00 61 934.2
20191209193003 77 278 3.0 9.0 0.00 0.00 0.00 62 934.2
20191209192502 77 247 5.0 14.0 0.00 0.00 0.00 62 934.2
20191209192003 77 288 5.0 9.0 0.00 0.00 0.00 62 934.2
20191209191503 77 288 3.0 6.0 0.00 0.00 0.00 64 934.2
20191209191004 77 294 4.0 7.0 0.00 0.00 0.00 65 934.2
20191209190503 76 195 2.0 9.0 0.00 0.00 0.00 65 934.2
20191209190003 76 260 3.0 10.0 0.00 0.00 0.00 66 934.2
20191209185503 76 190 3.0 7.0 0.00 0.00 0.00 67 934.2
20191209185003 76 286 3.0 9.0 0.00 0.00 0.00 67 934.2
20191209184503 76 296 4.0 9.0 0.00 0.00 0.00 67 934.2
20191209184003 76 315 6.0 9.0 0.00 0.00 0.00 68 934.2
20191209183503 76 288 3.0 7.0 0.00 0.00 0.00 69 934.2
20191209183003 76 257 3.0 8.0 0.00 0.00 0.00 69 934.2
20191209182503 76 320 3.0 7.0 0.00 0.00 0.00 71 934.2
20191209182004 76 205 2.0 7.0 0.00 0.00 0.00 72 934.2
20191209181504 76 310 1.0 7.0 0.00 0.00 0.00 72 934.2
20191209181004 76 305 2.0 8.0 0.00 0.00 0.00 72 934.2
20191209180503 75 270 4.0 8.0 0.00 0.00 0.00 73 934.2
20191209180006 75 273 2.0 8.0 0.00 0.00 0.00 73 934.2
20191209175504 75 281 2.0 10.0 0.00 0.00 0.00 74 934.2
20191209175005 75 294 4.0 14.0 0.00 0.00 0.00 74 934.2
20191209174508 75 324 5.0 12.0 0.00 0.00 0.00 74 934.2
20191209173808 74 264 3.0 6.0 0.00 0.00 0.00 76 934.2
20191209172504 74 223 3.0 7.0 0.00 0.00 0.00 76 934.2
20191209172003 74 309 5.0 10.0 0.00 0.00 0.00 77 934.2
20191209171503 73 305 5.0 13.0 0.00 0.00 0.00 78 934.2
20191209171003 73 249 3.0 8.0 0.00 0.00 0.00 78 934.2
20191209170504 73 308 2.0 6.0 0.00 0.00 0.00 79 934.2
20191209170003 73 300 4.0 7.0 0.00 0.00 0.00 78 934.2
20191209165504 73 296 5.0 12.0 0.00 0.00 0.00 79 934.2
20191209165004 73 293 3.0 8.0 0.00 0.00 0.00 79 934.2
20191209164504 73 285 2.0 8.0 0.00 0.00 0.00 80 934.1
20191209164003 72 309 4.0 9.0 0.00 0.00 0.00 80 934.1
20191209163504 72 302 3.0 7.0 0.00 0.00 0.00 80 934.1
20191209163004 72 244 4.0 12.0 0.00 0.00 0.00 81 934.1
20191209162503 72 276 3.0 10.0 0.00 0.00 0.00 81 934.1
20191209162003 72 278 3.0 8.0 0.00 0.00 0.00 82 934.1